Погода Ярково

Погода Ярково : погода сейчас, прогноз погоды и архив. Всё, что Вы хотите узнать о погоде Ярково!

Хотите узнать прогноз погоды Ярково? Тогда Вам сюда: Погода Ярково

Поиск расширенной информации на нашем сайте:

Другие новости

Новости СМИ2

Главная страница сайта

Новости сайта

03.07.2017

Напоминаем, что на нашем специализированном сайте Метеоцентр.Азия вы можете получить высокодетализированные автоматические прогнозы погоды по пунктам России, СНГ и мира в авиационном формате (включающие направление и скорость ветра, видимость, явления погоды, количество и форму облачности, нижнюю и верхнюю границу облачности).


Погода Ярково - сегодня

Время (UTC), дата Ветер
(°,м/с) 
Видим.   Явления Облачность Т
(°С)
Тd
(°С)
f(%) Тe
(°С)
Pmin
(гПа)
dP
(гПа)
Po
(мм)
O2
(г/м3)
Тmin Tmax R s Состояние
почвы
15 11.11.18 270 (З) 10 км    ясно 
-9.8 -14 71 -12  1036.3  -0.4  772  324    -7.7  0.2     
18 11.11.18 260 (З) 10 км    ясно 
-10.5 -14.3 74 -12  1035.3  -1  771  325           
21 11.11.18 260 (З) 10 км    ясно 
-10.2 -13.9 74 -12  1033.6  -1.7  770  324           
00 12.11.18 260 (З) 10 км    ясно 
-10.9 -13.9 78 -13  1032.6  -1  769  324           
06 12.11.18 280 (З) 10 км    3/0 верхняя 
[Cc]
-7 -12.7 64 -8  1030.4  -0.9  768  319           
09 12.11.18 280 (З) 10 км    6/0 верхняя 
[Cs]
-4.3 -14.3 46 -7  1029.2  -1.1  767  315           
12 12.11.18 300 (СЗ) 10 км    4/3 1000 м верхняя 
[Sc diur, vesp|Cs]
-5.2 -14.6 48 -8  1029  -0.2  767  316           
18 12.11.18 280 (З) 10 км    10/10 1000 м 
[Sc]
-5.2 -10 69 -7  1029.3  767  316           
21 12.11.18 290 (З) 10 км    10/10 1000 м 
[Sc]
-3.8 -8.7 69 -6  1029.9  0.6  768  315           
00 13.11.18 290 (З) 10 км    10/10 1000 м 
[Sc]
-3.8 -8.4 70 -6  1030.6  0.7  768  315           
03 13.11.18 260 (З) 10 км    9/9 1000 м 
[Sc]
-5.2 -8.9 75 -5  1031.6  769  317  -6.4      равномерный
сухой снег
100% 
06 13.11.18 270 (З) 10 км    9/9 600 м 
[Sc]
-2.5 -8 66 -2  1031.9  0.3  769  314           
09 13.11.18 230 (ЮЗ) 10 км    10/0 средняя 
[Ac As]
-2.4 -7.9 66 -4  1031.4  -0.5  769  313           
12 13.11.18 220 (ЮЗ) 10 км    10/0 средняя 
[Ac As]
-2.7 -10.3 56 -5  1030.9  -0.5  768  314           
18 13.11.18 240 (ЮЗ) 10 км    4/0 верхняя 
[Ci fib]
-6.9 -14.4 55 -8  1028.7  -1.2  767  318           
21 13.11.18 250 (З) 10 км    ясно 
-7 -15.6 50 -7  1028.3  -0.4  766  318           
00 14.11.18 200 (Ю) 10 км    ясно 
-10.2 -15.4 66 -10  1028  -0.4  766  322           
03 14.11.18 250 (З) 10 км    4/0 верхняя 
[Ci fib]
-7.9 -16 52 -9  1027.5  -0.4  766  319  -10.5      равномерный
сухой снег
100% 
06 14.11.18 230 (ЮЗ) 10 км    3/0 верхняя 
[Ci fib]
-5.5 -15.8 44 -9  1026.1  -1.3  765  316           
09 14.11.18 230 (ЮЗ) 10 км    3/0 верхняя 
[Ci fib]
-1.6 -15.6 33 -4  1024.7  -1.3  764  311           
12 14.11.18 230 (ЮЗ) 10 км    9/0 средняя 
[Ac trans]
-1.6 -16.5 31 -4  1023.9  -0.8  763  311           
18 14.11.18 270 (З) 10 км    10/10 1000 м 
[Sc]
+0 -15.9 29 -1  1024.4  0.7  764  309           
21 14.11.18 270 (З) 10 км    10/10 1000 м 
[Sc]
-1 -14.5 35 1026  1.5  765  311           
00 15.11.18 290 (З) 10 км    10/10 1000 м 
[Sc]
-1.2 -12.8 41 -2  1026.7  0.7  765  311           
03 15.11.18 260 (З) 10 км    10/0 средняя, верхняя 
[Ac trans|Cc]
-2.1 -12.5 45 -3  1028  1.2  766  312  -2.2      равномерный
сухой снег
100% 
Время (UTC), дата Ветер
(°,м/с) 
Видим.   Явления Облачность Т
(°С)
Тd
(°С)
f(%) Тe
(°С)
Pmin
(гПа)
dP
(гПа)
Po
(мм)
O2
(г/м3)
Тmin Tmax R s Состояние
почвы

Для получения пояснительной информации подведите курсор к названию столбца.

ПОГОДА Ярково - архив

Всё, что Вы хотите узнать о погоде Ярково - удобно и подробно!

Выберите нужную дату (начиная с 1 января 2015* года) и нажмите кнопку "Найти".
Будут отображены архивные сводки погоды по пункту Ярково, начиная с указанной даты.


Отображать данные в формате CSV (для использования в таблицах Excel)


Внимание! Наш архив погоды предназначен исключительно для личного некоммерческого использования в познавательных целях. Если Вам необходимы официальные справки о состоянии погоды (для производственных, юридических, коммерческих и т.п. целей), обращайтесь в органы Росгидромета.

*Примечание: данная дата относится к архиву по метеостанциям СССР (Россия, СНГ, Балтия).
Архив по метеостанциям Зарубежной Европы и Азии (кроме Китая) хранится 10 дней, по другим регионам земного шара (Китай, Африка, Америка, Австралия, Океания) - 1 день.

Ярково - район местоположения метеостанции


Название, широта, долгота, высота метеостанции:
Ярково 57.4°ш. 67.1°д. 50 м над ур. моря [Российская Федерация]

Дополнительная информация

В oтличие oт бoльшинства пoгoдных сайтoв мы публикуем пoдрoбную метеoинфoрмацию в детальнoм прoфессиoнальнoм фoрмате.

Характеристики температуры и влажнoсти вoздуха измеряются на высoте 2 м в тени вдали oт зданий и деревьев.
Скoрoсть ветра измеряется на высoте 10 м (на урoвне рoста челoвека скoрoсть ветра ниже в 1.5-2 раза). Если метеoстанция нахoдится в гoрoде или в лесу, тo скoрoсть ветра занижена на 2-4 м/с пo сравнению с oткрытым местoм. Скoрoсть ветра над акватoриями крупных рек и oзёр, а также на вершинах хoлмoв на 2-5 м/с выше, чем в oбычных услoвиях.
Атмoсфернoе давление в разных тoчках местнoсти мoжет значительнo oтличаться oт давления на метеoстанции, в зависимoсти oт услoвий рельефа (при пoдъёме на 10 м давление пoнижается примернo на 1 мм рт.ст.).